Regional Weather Roundup
Issued by NWS

Home | Current Version | Previous Version | Text Only | Print | Product List | Glossary Off
Versions: 1 2 3 4 5 6 7 8 9 10 11 12 13 14 15 16 17 18 19 20 21 22 23 24 25 26 27 28 29 30 31 32 33 34 35 36 37 38 39 40 41 42 43 44 45 46 47 48 49 50

000
ASUS43 KDMX 221307
RWRIA

WEATHER ROUNDUP FOR IOWA
NATIONAL WEATHER SERVICE DES MOINES IA
800 AM CDT FRI AUG 22 2014

NOTE: "FAIR" INDICATES FEW OR NO CLOUDS BELOW 12,000 FEET WITH NO
SIGNIFICANT WEATHER AND/OR OBSTRUCTIONS TO VISIBILITY.

* - THESE STATIONS ARE NOT NWS STATIONS...THUS NOT UNDER NWS
QUALITY CONTROL.  THEY ALSO DO NOT REPORT WEATHER SUCH
AS PRECIPITATION OR FOG.

IAZ001>003-012>014-020>022-031>034-043>046-221400-
   NORTHWEST IOWA

CITY           SKY/WX    TMP DP  RH WIND       PRES   REMARKS
CARROLL *      MOSUNNY   73  72  94 W3        29.92R
CHEROKEE *     SUNNY     72  72 100 N5        29.92R
DENISON *      SUNNY     72  72 100 CALM      29.91S
LE MARS *        N/A    N/A N/A N/A MISG      29.92S
ORANGE CITY *  SUNNY     73  66  78 NE5       29.93S
SHELDON *      SUNNY     68  68 100 CALM      29.93R
SIOUX CITY     SUNNY     75  71  87 CALM      29.91R
SPENCER        FOG       70  68  93 N3        29.94R VSB 3/4
STORM LAKE *   MOSUNNY   72  72 100 N8        29.93S FOG
$$

IAZ055>058-069>071-079>083-090>094-221400-
   SOUTHWEST IOWA

CITY           SKY/WX    TMP DP  RH WIND       PRES   REMARKS
ATLANTIC *     SUNNY     70  70 100 N7        29.92R
AUDUBON *      SUNNY     73  72  94 CALM      29.93F
CLARINDA *     SUNNY     75  73  94 CALM      29.92F
COUNCIL BLFS * SUNNY     72  72 100 CALM      29.90S
CRESTON *      SUNNY     73  70  88 S8        29.93R
HARLAN  *      SUNNY     72  72 100 CALM      29.95S
LAMONI         PTSUNNY   75  71  87 S8        29.93S
RED OAK *      SUNNY     72  72 100 NE3       29.91S
SHENANDOAH *   SUNNY     73  73 100 CALM      29.90S
$$

IAZ047>049-059>061-072>074-084-221400-
   CENTRAL IOWA

CITY           SKY/WX    TMP DP  RH WIND       PRES   REMARKS
AMES           PTSUNNY   72  71  97 CALM      29.92R
ANKENY *       SUNNY     73  72  94 SE5       29.92R
CHARITON *     SUNNY     73  72  94 S8        29.92R
DES MOINES     PTSUNNY   75  70  84 E6        29.92R
GRINNELL*      CLOUDY    73  70  88 S9        29.94S
KNOXVILLE *    SUNNY     73  72  94 SE6       29.91R
MARSHALLTOWN   PTSUNNY   74  73  97 S6        29.91R
PELLA *        CLOUDY    73  72  94 CALM      29.94R
PERRY *          N/A     72  72 100 CALM      29.92R
$$

IAZ004>006-015-016-023>025-035-036-221400-
   NORTH CENTRAL IOWA

CITY           SKY/WX    TMP DP  RH WIND       PRES   REMARKS
ALGONA *       CLOUDY    72  72 100 N5        29.93R
CLARION *      SUNNY     75  75 100 CALM      29.91R
ESTHERVILLE    FOG       70  70 100 N7        29.94R VSB<1/4
FORT DODGE *   MOSUNNY   73  73 100 CALM      29.91R
MASON CITY     CLOUDY    73  73 100 CALM      29.93R FOG
FOREST CITY *  SUNNY     72  72 100 N5        29.92R FOG
IOWA FALLS *     N/A     73  72  94 S5        29.93R FOG
$$

IAZ007>011-017>019-026>030-037>042-050>054-066-221400-
   NORTHEAST IOWA

CITY           SKY/WX    TMP DP  RH WIND       PRES   REMARKS
CEDAR RAPIDS   LGT RAIN  74  74 100 S5        29.90S FOG
CHARLES CITY * FOG       72  72 100 CALM      29.92R VSB 0
CLINTON *      CLOUDY    73  73 100 E6        29.92F
DECORAH *      MOSUNNY   72  72 100 CALM      29.91S FOG
DUBUQUE        CLOUDY    73  73 100 NE5       29.91F
MONTICELLO *   CLOUDY    72  72 100 CALM      29.90S FOG
OELWEIN *      CLOUDY    72  72 100 SE3       29.91F FOG
WATERLOO       CLOUDY    73  72  96 CALM      29.89S FOG
$$

IAZ064-065-067-068-078-221400-
   EAST CENTRAL IOWA

CITY           SKY/WX    TMP DP  RH WIND       PRES   REMARKS
DAVENPORT      CLOUDY    76  74  93 SW6       29.91S
IOWA CITY      LGT RAIN  76  76 100 CALM      29.91F
MT. PLEASANT * LGT RAIN  73  73 100 S6        29.90F
MUSCATINE *    CLOUDY    77  75  94 N5        29.91R
QUAD CITIES    CLOUDY    76  73  91 VRB3      29.90S
$$

IAZ062-063-075>077-085>089-095>099-221400-
   SOUTHEAST IOWA

CITY           SKY/WX    TMP DP  RH WIND       PRES   REMARKS
BURLINGTON     LGT RAIN  74  73  97 S8        29.93R
FAIRFIELD *    CLOUDY    73  70  88 CALM      29.92S
FORT MADISON * LGT RAIN  75  73  94 S6        29.94F
KEOKUK *       LGT RAIN  75  73  94 S6        29.95F
OSKALOOSA *      N/A     73  72  94 NE5       29.92S
CENTERVILLE *  SUNNY     73  73 100 SE6       29.94R
OTTUMWA        CLOUDY    73  70  90 N7        29.90S
WASHINGTON *   CLOUDY    75  73  94 W5        29.89F
$$

ABBREVIATIONS USED IN REMARKS
   TC - TEMPERATURES IN CELSIUS
  WCI - WIND CHILL INDEX
   HX - HEAT INDEX
  VSB - VISIBILITY
$$




USA.gov is the U.S. government's official web portal to all federal, state and local government web resources and services.